DELTA 1 DEB

Satellite information

Favourite Embed

Satellite Type and Status

DEBRISIN ORBIT

Key statistics

Satellite DELTA 1 DEB at a glance.

Uptime

17451

Days in orbit

Revolutions

≈ 14.3

Per day

Orbit

SSO

Sun Synchronous Orbit

Inclination

98.8

Latest

Satellite identification and parameters

Extended collection of information and parameters for DELTA 1 DEB.

Object identification

Identified? True

Debris? True

Object name: DELTA 1 DEB

International designator: 1978-026HV

Object number (NORAD): 26861

Object ID (CCSDS): 26861

Country: UNITED STATES OF AMERICA (US)

Current information (Y/N): Y

RCS size: SMALL

Orbital parameters

Period: 100.727 minutes

Inclination: 98.7962 deg

SMA: 7171.173 km

Apoapsis: 865.186 km

Periapsis: 720.891 km

RAAN: 335.0265 deg

Eccentricy: 0.01006078

Argument of periapsis: 170.706 deg

Mean anomaly: 189.6014 deg

Mean motion: 14.29609565 rev/day

Mean motion (dot): 0.00000321 rev/day2

B* drag term: 0.00013522309 1/REarth

Two-line elements (TLE)

Creation date: Dec. 13, 2025, 4:32 a.m.

Reference frame: TEME

Reference center: EARTH

Epoch: Dec. 12, 2025, 5:07 p.m. UTC

TLE line 0: 0 DELTA 1 DEB

TLE line 1: 1 26861U 78026HV 25346.71336808 .00000321 00000-0 13522-3 0 9994

TLE line 2: 2 26861 98.7962 335.0265 0100608 170.7060 189.6014 14.29609565164047

Live tracking on map

Real-time ground track for satellite DELTA 1 DEB.

In-orbit conjunctions

A list of the most updated potential collisions computed for object DELTA 1 DEB.

Target Orbit TCA Probability of collision Miss distance Type
METEOR 1-5 LEO 2025-04-20 06:10:53 0.0007145222 161.0 (m) PAYLOAD
FENGYUN 1C DEB SSO 2024-06-17 05:30:30 0.0001076213 336.0 (m) DEBRIS

Associated space launch

Earth observation satellite

DELTA 1 DEB was lifted into orbit during the mission ‘Delta 2910 | Landsat 3’, on board a Delta 2910 space rocket.

The launch took place on March 5, 1978, 5:54 p.m. from Space Launch Complex 2W.

For more information about the launch, click the button.

Launch to space Delta 2910 | Landsat 3
Delta 2910 | Landsat 3

Agency: N/A

Status: Launch Successful

Launch date: March 5, 1978, 5:54 p.m. UTC

Rocket: Delta 2910

Launch pad: Space Launch Complex 2W

Location: Vandenberg SFB, CA, USA

...

Latest news about this satellite

There are no fresh news available about this satellite. Check back as we update our databases every day.


Newsletter sign-up

Weekly statistics, charts and insights to help you stay on top of the space industry.